Regional Weather Roundup
Issued by NWS Albany, NY

Home | Current Version | Previous Version | Text Only | Print | Product List | Glossary On
Versions: 1 2 3 4 5 6 7 8 9 10 11 12 13 14 15 16 17 18 19 20 21 22 23 24 25 26 27 28 29 30 31 32 33 34 35 36 37 38 39 40 41 42 43 44 45 46 47 48 49 50
000
ASUS41 KALY 271410
RWRALY

NEW YORK STATE HOURLY WEATHER ROUNDUP
NATIONAL WEATHER SERVICE ALBANY NY
1000 AM EDT MON APR 27 2015

NOTE: "FAIR" INDICATES FEW OR NO CLOUDS BELOW 12,000 FEET WITH NO
SIGNIFICANT WEATHER AND/OR NO OBSTRUCTIONS TO VISIBILITY.

NYZ032-033-038>043-046>054-057>066-NYZ062>081-271500-
EAST


CITY           SKY/WX    TMP DP  RH WIND       PRES   REMARKS
ALBANY         PTSUNNY   52  35  52 VRB7G16   29.69F
GLENS FALLS    MOSUNNY   52  35  52 N8G16     29.68S
POUGHKEEPSIE   CLOUDY    54  34  46 N10       29.67S
NEWBURGH       PTSUNNY   54  36  50 N10G23    29.68S
MONTGOMERY     PTSUNNY   54  35  48 NW13      29.67S
WHITE PLAINS   MOSUNNY   53  32  44 NW13G21   29.65S
ISLIP          PTSUNNY   52  33  48 N12       29.65R
NEW YORK CITY  MOSUNNY   53  33  46 NW9       29.68S
CENTRAL PARK   MOSUNNY   53  31  42 VRB7      29.70S
$$

NYZ005>009-017-018-044>046-055-056-271500-
CENTRAL


CITY           SKY/WX    TMP DP  RH WIND       PRES   REMARKS
FULTON         CLOUDY    44  35  70 NW12      29.79R
SYRACUSE       CLOUDY    46  36  68 NW9       29.78R
ROME           CLOUDY    47  37  68 W9        29.76R
ELMIRA         CLOUDY    46  36  68 NW7       29.77R
BINGHAMTON     CLOUDY    42  36  79 W9        29.72R
MONTICELLO     CLOUDY    46  34  61 NW12      29.70S
$$

NYZ026>034-041>043-271500-
NORTH


CITY           SKY/WX    TMP DP  RH WIND       PRES   REMARKS
WATERTOWN      CLOUDY    44  36  73 N3        29.78S
FORT DRUM      NOT AVBL
MASSENA        CLOUDY    46  38  73 W6        29.78S
SARANAC LAKE   CLOUDY    38  35  89 VRB6      29.69S WCI  33
PLATTSBURGH    CLOUDY    45  38  76 NW10      29.72R
$$

NYZ001>004-010>016-019>021-271500-
WEST


CITY           SKY/WX    TMP DP  RH WIND       PRES   REMARKS
NIAGARA FALLS  LGT RAIN  41  37  86 N10       29.84S
BUFFALO        LGT RAIN  40  37  89 N10       29.84R WCI  33
DUNKIRK        LGT RAIN  39  38  96 NW5       29.85R FOG
JAMESTOWN      CLOUDY    37  34  87 W6        29.81S WCI  33
WELLSVILLE     CLOUDY    39  33  79 NW9       29.78S WCI  33
ROCHESTER      CLOUDY    42  37  82 N7        29.82R
PENN YAN       CLOUDY    43  36  76 NW10      29.79R
$$

             KEY
       WCI = WIND CHILL INDEX
       VSB = VISIBILITY
       HX  = HEAT INDEX
$$



USA.gov is the U.S. government's official web portal to all federal, state and local government web resources and services.